Total_Precipitation_Accumulation
2.36 2.64 3.52 4.48 5.15 4.00 2.97 2.42 2.07 1.83 1.48 1.10 0.90 0.92 1.28 1.77 2.13 2.22 2.04 1.80 1.14 1.05 1.21 1.73 2.07 1.96 1.81 1.75 1.73 1.82 1.82 1.76 1.81 1.92 1.92 1.82 1.99 2.13 2.12 2.02 1.94 1.96 1.92 1.88 1.84 1.83 1.87 1.71 1.76
2.02 2.83 4.14 5.12 4.42 3.13 2.69 2.17 1.88 1.59 1.20 0.90 0.77 0.72 0.87 0.71 0.68 1.17 2.15 2.07 1.15 0.91 1.06 1.53 2.10 2.01 1.92 1.90 1.92 2.00 1.95 1.74 1.70 1.73 1.69 1.70 1.87 2.11 2.24 2.20 2.10 2.13 2.06 1.87 1.73 1.65 1.79 1.74 1.76
2.33 3.30 4.57 4.68 3.30 2.58 2.56 1.98 1.47 1.06 0.79 0.84 0.84 0.74 0.83 0.99 1.10 1.58 2.04 1.46 1.06 0.96 1.04 1.61 2.22 2.04 1.94 1.96 2.11 2.11 1.94 1.83 1.74 1.72 1.71 1.69 1.84 2.06 2.20 2.10 2.11 2.23 2.18 1.95 1.84 1.78 1.88 1.85 1.86
2.62 3.77 4.15 3.53 2.67 2.06 1.79 1.54 1.17 1.00 0.71 0.48 0.66 0.86 0.78 1.03 1.23 1.48 1.42 1.03 0.82 0.86 0.95 1.47 2.15 2.01 1.88 1.91 2.14 2.05 1.88 1.91 1.81 1.73 1.77 1.86 2.09 2.32 2.32 2.22 2.33 2.26 2.23 2.05 1.96 1.89 1.94 1.94 1.93
2.91 3.74 3.73 3.31 2.48 2.13 1.59 1.25 1.05 1.02 0.82 0.55 0.55 0.88 1.03 1.39 1.35 1.33 1.25 1.03 0.85 0.86 0.90 1.23 1.86 1.90 1.80 1.83 1.96 1.92 1.96 2.02 1.88 1.80 1.83 1.97 2.14 2.30 2.43 2.41 2.44 2.40 2.36 2.20 2.03 1.94 1.87 1.87 1.93
3.33 3.40 3.52 3.27 2.68 2.35 1.80 1.31 0.96 0.88 0.76 0.60 0.59 0.90 1.25 1.68 1.56 1.50 1.30 1.21 1.09 0.97 0.88 1.04 1.59 1.73 1.69 1.78 1.86 1.88 1.94 1.89 1.81 1.84 1.89 1.93 2.02 2.16 2.24 2.28 2.36 2.34 2.31 2.30 2.17 2.07 1.93 1.91 1.84
3.12 3.07 2.82 2.38 2.52 2.63 1.89 1.19 1.09 1.03 1.00 0.85 0.61 0.95 1.34 1.78 1.63 1.36 1.36 1.41 1.48 1.34 1.15 1.14 1.24 1.33 1.48 1.68 1.80 1.93 1.99 1.81 1.69 1.67 1.72 1.76 1.81 1.90 1.95 2.03 2.14 2.13 2.21 2.23 2.10 2.02 1.98 1.98 1.88
2.48 2.58 2.39 2.30 2.52 2.67 1.62 1.04 0.88 0.87 0.92 0.60 0.52 0.87 1.12 1.36 1.46 1.40 1.37 1.44 1.40 1.34 1.27 1.20 1.20 1.17 1.20 1.34 1.71 2.04 2.11 1.95 1.71 1.61 1.58 1.70 1.64 1.66 1.77 1.80 2.05 2.15 2.19 2.22 2.16 2.07 1.97 2.01 1.99
2.10 2.46 2.57 2.51 2.41 2.12 1.27 0.96 0.77 0.57 0.59 0.52 0.42 0.63 0.81 0.84 1.11 1.32 1.33 1.37 1.34 1.25 1.27 1.20 1.20 1.22 1.30 1.37 1.51 1.90 2.10 2.07 1.65 1.40 1.41 1.38 1.29 1.36 1.46 1.52 2.00 2.19 2.40 2.46 2.35 2.15 1.99 1.91 1.89
2.15 2.41 2.28 1.85 1.63 1.34 1.02 0.87 0.72 0.75 0.84 0.72 0.56 0.63 0.78 0.85 0.98 1.21 1.26 1.16 1.12 1.09 1.10 1.11 1.11 1.10 1.11 1.14 1.53 1.85 1.72 1.78 1.44 1.34 1.27 1.26 1.34 1.39 1.25 1.42 1.91 2.14 2.35 2.45 2.33 2.17 1.91 1.66 1.50
1.81 1.97 1.63 1.38 1.17 0.94 0.88 0.83 0.64 0.77 0.97 0.75 0.57 0.64 0.78 0.89 1.01 1.08 1.14 1.06 0.97 0.97 0.89 0.83 0.89 0.86 0.86 0.97 1.15 1.49 1.76 1.76 1.68 1.60 1.47 1.45 1.35 1.22 1.22 1.37 1.54 1.76 1.94 1.98 2.02 1.92 1.68 1.49 1.43
1.57 1.50 1.31 1.18 0.87 0.90 0.91 0.77 0.69 0.67 0.72 0.53 0.47 0.54 0.73 0.91 1.04 1.02 1.04 1.04 0.96 1.01 1.00 0.82 0.74 0.74 0.74 0.79 0.95 1.22 1.44 1.54 1.53 1.43 1.30 1.47 1.44 1.26 1.29 1.50 1.62 1.67 1.83 2.07 2.08 1.99 1.77 1.57 1.42
1.46 1.51 1.22 1.00 0.86 0.91 0.85 0.78 0.67 0.68 0.57 0.45 0.45 0.59 0.82 1.02 1.07 1.06 1.00 1.00 1.00 1.02 1.08 0.95 0.75 0.70 0.76 0.79 0.85 0.92 1.15 1.27 1.26 1.38 1.28 1.31 1.34 1.23 1.20 1.32 1.57 1.66 1.73 1.96 2.05 1.86 1.76 1.79 1.70
1.29 1.24 1.19 1.02 0.92 0.94 0.95 0.78 0.67 0.80 0.69 0.58 0.64 0.76 0.93 1.04 1.03 0.98 0.91 0.88 0.88 0.90 0.96 0.92 0.81 0.78 0.78 0.75 0.72 0.73 0.77 0.96 0.99 0.98 0.92 1.09 1.26 1.26 1.29 1.26 1.42 1.69 1.78 1.84 1.88 1.79 1.72 1.71 1.72
1.07 1.16 1.31 1.21 1.12 1.08 0.97 1.05 0.82 0.83 0.81 0.70 0.69 0.77 0.98 0.94 0.92 0.87 0.80 0.73 0.70 0.77 0.81 0.85 0.87 0.85 0.82 0.83 0.81 0.75 0.76 0.84 0.93 0.97 0.94 1.03 1.16 1.27 1.27 1.19 1.29 1.55 1.77 1.83 1.83 1.79 1.79 1.62 1.52
1.25 1.55 1.79 1.48 1.24 1.20 1.12 1.27 0.91 0.90 0.85 0.75 0.72 0.71 0.82 0.72 0.71 0.73 0.68 0.62 0.59 0.60 0.66 0.73 0.73 0.80 0.83 0.86 0.90 0.87 0.89 0.90 0.89 0.95 0.93 0.94 1.09 1.25 1.35 1.28 1.25 1.44 1.70 1.95 2.11 2.00 1.91 1.78 1.65
1.59 1.68 1.61 1.52 1.20 1.20 1.13 1.17 0.99 0.85 0.80 0.71 0.69 0.70 0.68 0.60 0.56 0.59 0.58 0.54 0.47 0.47 0.48 0.53 0.61 0.71 0.79 0.85 0.93 0.90 0.92 1.07 1.12 1.02 0.93 0.98 1.08 1.17 1.40 1.52 1.45 1.50 1.72 1.87 1.97 2.02 1.90 1.84 1.74
1.29 1.27 1.28 1.37 1.13 1.04 1.02 0.95 0.96 0.80 0.65 0.61 0.60 0.60 0.57 0.54 0.48 0.48 0.49 0.49 0.45 0.43 0.42 0.45 0.54 0.59 0.61 0.76 0.91 1.02 0.98 1.03 1.24 1.29 1.30 1.34 1.38 1.40 1.54 1.67 1.68 1.71 1.83 1.86 2.05 2.31 2.14 1.91 1.84
0.94 0.95 1.00 0.94 0.80 0.90 0.91 0.86 0.91 0.83 0.67 0.54 0.52 0.56 0.52 0.48 0.49 0.43 0.40 0.46 0.47 0.41 0.38 0.45 0.52 0.55 0.55 0.67 0.81 0.92 1.03 1.16 1.35 1.41 1.48 1.63 1.68 1.69 1.81 1.90 1.96 1.91 1.86 1.94 2.14 2.58 2.53 2.19 1.95
0.86 0.86 0.90 0.81 0.70 0.75 0.84 0.88 0.86 0.77 0.69 0.59 0.51 0.43 0.41 0.41 0.40 0.36 0.34 0.36 0.38 0.38 0.37 0.40 0.51 0.60 0.64 0.70 0.84 1.03 1.27 1.35 1.49 1.68 1.69 1.70 1.76 1.81 1.88 2.07 2.18 2.14 2.13 2.21 2.28 2.59 2.79 2.55 2.33
0.82 0.78 0.73 0.76 0.73 0.73 0.79 1.00 0.92 0.83 0.68 0.57 0.49 0.39 0.33 0.36 0.34 0.28 0.30 0.32 0.34 0.36 0.43 0.46 0.58 0.78 0.94 1.02 1.24 1.56 1.83 1.88 1.82 1.85 1.91 1.90 1.93 2.01 1.97 2.03 2.22 2.24 2.23 2.30 2.50 2.82 3.18 3.15 2.84
0.84 0.60 0.53 0.65 0.80 0.93 0.76 1.10 0.91 0.81 0.73 0.57 0.48 0.43 0.35 0.39 0.42 0.33 0.31 0.34 0.32 0.37 0.51 0.69 0.90 1.20 1.41 1.51 1.68 1.94 2.06 2.10 2.02 2.02 2.03 2.06 1.99 1.92 1.93 2.00 2.16 2.34 2.48 2.61 2.66 2.64 3.07 3.42 3.23
0.66 0.55 0.54 0.64 0.76 0.81 0.67 0.83 0.79 0.67 0.74 0.64 0.57 0.52 0.46 0.47 0.46 0.47 0.46 0.51 0.52 0.62 0.83 1.18 1.45 1.65 1.78 1.81 1.88 2.09 2.23 2.39 2.42 2.30 2.15 2.10 2.10 2.04 1.95 1.96 1.99 2.04 2.16 2.33 2.47 2.53 2.78 3.03 3.23
0.55 0.63 0.67 0.70 0.81 0.97 0.64 0.65 0.79 0.65 0.62 0.64 0.65 0.57 0.52 0.50 0.53 0.63 0.76 0.89 0.96 1.05 1.26 1.50 1.64 1.79 1.77 1.74 1.76 1.89 2.08 2.25 2.28 2.32 2.29 2.18 2.12 2.05 1.92 1.84 1.89 1.91 1.92 2.07 2.19 2.31 2.59 2.81 2.96
0.62 0.82 1.08 1.11 1.10 0.93 0.54 0.64 0.68 0.48 0.45 0.53 0.58 0.59 0.55 0.52 0.62 0.84 1.02 1.16 1.25 1.35 1.46 1.51 1.49 1.56 1.58 1.53 1.53 1.60 1.70 1.75 1.81 1.95 1.87 1.75 1.66 1.62 1.59 1.51 1.53 1.66 1.74 1.91 1.99 1.95 2.03 2.24 2.46
0.57 0.63 0.96 1.09 0.96 0.80 0.61 0.80 0.70 0.52 0.51 0.45 0.49 0.57 0.65 0.76 0.90 1.03 1.15 1.26 1.31 1.44 1.50 1.45 1.41 1.39 1.31 1.24 1.26 1.26 1.33 1.42 1.43 1.43 1.40 1.33 1.29 1.27 1.23 1.23 1.23 1.28 1.36 1.57 1.79 1.81 1.83 1.92 2.02
0.49 0.50 0.55 0.75 0.71 0.76 0.70 0.80 0.72 0.52 0.51 0.46 0.47 0.57 0.71 0.89 1.14 1.32 1.33 1.25 1.21 1.26 1.34 1.31 1.26 1.20 1.10 1.02 1.04 1.06 1.13 1.18 1.15 1.09 1.05 1.07 1.00 0.99 0.98 1.03 1.11 1.18 1.17 1.25 1.41 1.61 1.68 1.77 1.85
0.40 0.45 0.58 0.87 1.03 1.01 0.81 0.90 0.87 0.66 0.59 0.55 0.57 0.69 0.86 1.02 1.24 1.52 1.63 1.50 1.27 1.10 1.13 1.09 1.08 1.13 1.12 1.07 1.07 1.04 0.97 0.89 0.86 0.86 0.80 0.81 0.87 0.87 0.89 0.89 0.94 1.02 1.06 1.13 1.24 1.30 1.40 1.51 1.68
0.42 0.48 0.61 0.80 0.84 1.11 1.32 1.27 0.94 0.82 0.75 0.73 0.77 0.83 0.91 1.16 1.45 1.57 1.59 1.46 1.32 1.06 0.99 0.98 0.97 1.03 1.10 1.04 1.06 1.04 0.91 0.78 0.73 0.68 0.63 0.64 0.69 0.73 0.72 0.78 0.88 0.92 0.95 0.98 0.99 1.02 1.08 1.16 1.28
0.37 0.47 0.65 0.99 0.98 0.94 1.16 1.17 0.76 0.79 0.90 0.83 0.89 0.97 1.00 1.09 1.15 1.15 1.23 1.24 1.17 1.05 0.97 1.04 1.09 1.10 1.07 1.02 0.99 0.94 0.87 0.76 0.75 0.69 0.61 0.63 0.67 0.70 0.70 0.76 0.82 0.84 0.90 0.93 0.90 0.90 0.96 1.07 1.16